sat.trackr.live / text

‹ back to catalog

STARLINK-35707

NORAD 66533 · 2025-265T

PAYLOAD ACTIVE UNKNOWN

§ Identity

Operator
Country
US
Launch date
2025-11-19
Launch site
AFETR
Launch vehicle
Mass (kg)
RCS (m²)

Purposes: comms

External: N2YO · Heavens-Above · Gunter

§ Orbital elements

Epoch: 2026-09-20T22:27:08.723232Z

Period
94.27 min
Inclination
42.9952°
Eccentricity
0.0000269
Mean motion
15.27589603 rev/d
Perigee alt
482.8 km
Apogee alt
483.2 km
Semi-major
6,861.2 km
B*
5.5062e-4
RAAN
255.2978°
Arg perigee
206.7786°
Mean anomaly
153.3051°
Rev number
4,697

§ Raw data

STARLINK-357071 66533U 25265T   26263.93551763  .00014925  00000+0  55062-3 0  99922 66533  42.9952 255.2978 0000269 206.7786 153.3051 15.27589603 46977

JSON: /api/v1/satellites/66533 · /tle

For live sub-satellite position, see the globe view (requires WebGL).

§ Visibility from observer

Set your observer location to see the next 7 days of passes ≥ 10°. The values pass through the URL so the page stays shareable.

No JS? Fill the form by hand. The geolocation button needs JavaScript.